Weather History for Marathon, FL

Change the Weather History Date:

Saturday, March 9, 2013

  Actual Average Record
Temperature  
Mean Temperature 70 °F 73 °F  
Max Temperature 77 °F 78 °F 86 °F (2003)
Min Temperature 63 °F 68 °F 55 °F (2001)
Degree Days  
Heating Degree Days 0 0  
Month to date heating degree days 19 0  
Since 1 July heating degree days 32 75  
Cooling Degree Days 5 8  
Month to date cooling degree days 12 72  
Year to date cooling degree days 607 454  
Growing Degree Days 20 (Base 50)    
Moisture  
Dew Point 55 °F    
Average Humidity 67    
Maximum Humidity 84    
Minimum Humidity 49    
Precipitation  
Precipitation 0.00 in 0.08 in 0.18 in (2005)
Month to date precipitation 0.15 0.70  
Year to date precipitation 2.53 4.52  
Snow  
Snow 0.00 in - - ()
Month to date snowfall 0.0  
Since 1 July snowfall 0.0  
Snow Depth 0.00 in    
Sea Level Pressure  
Sea Level Pressure 30.14 in    
Wind  
Wind Speed 10 mph (NE)    
Max Wind Speed 18 mph    
Max Gust Speed 24 mph    
Visibility 10 miles    
Events      
T = Trace of Precipitation, MM = Missing Value Source: NWS Daily Summary

Daily Weather History Graph

Daily Weather History Graph

Search for Another Location

Airport:

Trip Planner

Search our weather history database for the weather conditions in past years. The results will help you decide how hot, cold, wet, or windy it might be!

Date:

Astronomy

Mar. 09, 2013 Rise Set
Actual Time 6:38 AM EST 6:30 PM EST
Civil Twilight 6:16 AM EST 6:53 PM EST
Nautical Twilight 5:49 AM EST 7:19 PM EST
Astronomical Twilight 5:23 AM EST 7:46 PM EST
Moon 4:51 AM EST (3/9) 4:39 PM EST (3/9)
Length of Visible Light 12h 37m
Length of Day
11h 51m
Waning Crescent, 5% of the Moon is Illuminated
Mar 9
Waning Crescent
Mar 11
New
Mar 19
First Quarter
Mar 27
Full
Apr 3
Last Quarter

Hourly Weather History & Observations

Time (EST) Temp. Dew Point Humidity Pressure Visibility Wind Dir Wind Speed Gust Speed Precip Events Conditions
12:53 AM 64.9 °F 57.9 °F 78% 30.15 in 10.0 mi North 6.9 mph - N/A   Clear
1:53 AM 64.9 °F 57.0 °F 75% 30.14 in 10.0 mi North 8.1 mph - N/A   Clear
2:53 AM 64.0 °F 55.0 °F 73% 30.13 in 10.0 mi North 6.9 mph - N/A   Clear
3:53 AM 64.0 °F 54.0 °F 70% 30.12 in 10.0 mi North 5.8 mph - N/A   Clear
4:53 AM 64.0 °F 51.1 °F 63% 30.12 in 10.0 mi North 5.8 mph - N/A   Clear
5:53 AM 64.0 °F 55.0 °F 73% 30.13 in 10.0 mi NNE 5.8 mph - N/A   Clear
6:53 AM 64.0 °F 55.0 °F 73% 30.14 in 10.0 mi NNE 6.9 mph - N/A   Clear
7:53 AM 66.9 °F 54.0 °F 63% 30.16 in 10.0 mi NNE 9.2 mph - N/A   Clear
8:53 AM 69.1 °F 55.0 °F 61% 30.17 in 10.0 mi North 8.1 mph - N/A   Clear
9:53 AM 70.0 °F 54.0 °F 57% 30.18 in 10.0 mi NNE 12.7 mph - N/A   Clear
10:53 AM 71.1 °F 53.1 °F 53% 30.17 in 10.0 mi NE 11.5 mph - N/A   Clear
11:53 AM 73.0 °F 53.1 °F 49% 30.17 in 10.0 mi NNE 11.5 mph - N/A   Clear
12:53 PM 73.9 °F 55.0 °F 52% 30.15 in 10.0 mi NE 11.5 mph - N/A   Clear
1:53 PM 75.0 °F 57.0 °F 53% 30.14 in 10.0 mi ENE 11.5 mph - N/A   Clear
2:53 PM 75.9 °F 55.9 °F 50% 30.12 in 10.0 mi East 11.5 mph 18.4 mph N/A   Clear
3:53 PM 73.9 °F 55.0 °F 52% 30.10 in 10.0 mi East 10.4 mph - N/A   Clear
4:53 PM 73.0 °F 55.9 °F 55% 30.11 in 10.0 mi East 8.1 mph - N/A   Clear
5:53 PM 72.0 °F 55.9 °F 57% 30.12 in 10.0 mi ENE 13.8 mph 18.4 mph N/A   Clear
6:53 PM 71.1 °F 55.9 °F 59% 30.13 in 10.0 mi ENE 11.5 mph - N/A   Clear
7:53 PM 69.1 °F 55.0 °F 61% 30.14 in 10.0 mi ENE 10.4 mph - N/A   Clear
8:53 PM 69.1 °F 55.9 °F 63% 30.17 in 10.0 mi ENE 11.5 mph - N/A   Clear
9:53 PM 69.1 °F 55.0 °F 61% 30.17 in 10.0 mi ENE 13.8 mph - N/A   Clear
10:53 PM 68.0 °F 55.0 °F 63% 30.16 in 10.0 mi ENE 12.7 mph - N/A   Clear
11:53 PM 68.0 °F 55.0 °F 63% 30.15 in 10.0 mi ENE 8.1 mph - N/A   Clear